Year,Month,Day,Hour,Minute,Value (Times are PST for windspeed in km/hr)
2019,01,05,00,00,0.00
2019,01,05,00,01,0.00
2019,01,05,00,02,0.00
2019,01,05,00,03,0.00
2019,01,05,00,04,0.00
2019,01,05,00,05,0.00
2019,01,05,00,06,0.00
2019,01,05,00,07,0.00
2019,01,05,00,08,0.00
2019,01,05,00,09,0.00
2019,01,05,00,10,0.00
2019,01,05,00,11,0.00
2019,01,05,00,12,0.00
2019,01,05,00,13,0.00
2019,01,05,00,14,0.00
2019,01,05,00,15,0.00
2019,01,05,00,16,0.00
2019,01,05,00,17,0.00
2019,01,05,00,18,0.00
2019,01,05,00,19,0.00
2019,01,05,00,20,0.00
2019,01,05,00,21,0.20
2019,01,05,00,22,0.20
2019,01,05,00,23,0.00
2019,01,05,00,24,0.00
2019,01,05,00,25,0.20
2019,01,05,00,26,0.10
2019,01,05,00,27,0.00
2019,01,05,00,28,0.00
2019,01,05,00,29,0.00
2019,01,05,00,30,0.00
2019,01,05,00,31,0.00
2019,01,05,00,32,0.00
2019,01,05,00,33,0.00
2019,01,05,00,34,0.00
2019,01,05,00,35,0.00
2019,01,05,00,36,0.00
2019,01,05,00,37,0.00
2019,01,05,00,38,0.00
2019,01,05,00,39,0.00
2019,01,05,00,40,0.00
2019,01,05,00,41,0.00
2019,01,05,00,42,0.00
2019,01,05,00,43,0.00
2019,01,05,00,44,0.00
2019,01,05,00,45,0.00
2019,01,05,00,46,0.00
2019,01,05,00,47,0.00
2019,01,05,00,48,0.00
2019,01,05,00,49,0.00
2019,01,05,00,50,0.00
2019,01,05,00,51,0.00
2019,01,05,00,52,0.20
2019,01,05,00,53,0.00
2019,01,05,00,54,0.20
2019,01,05,00,55,0.00
2019,01,05,00,56,0.30
2019,01,05,00,57,0.00
2019,01,05,00,58,1.50
2019,01,05,00,59,0.60
2019,01,05,01,00,0.00
2019,01,05,01,01,0.00
2019,01,05,01,02,0.00
2019,01,05,01,03,0.00
2019,01,05,01,04,0.00
2019,01,05,01,05,0.50
2019,01,05,01,06,1.80
2019,01,05,01,07,2.10
2019,01,05,01,08,0.60
2019,01,05,01,09,1.70
2019,01,05,01,10,2.00
2019,01,05,01,11,3.10
2019,01,05,01,12,2.50
2019,01,05,01,13,1.80
2019,01,05,01,14,2.40
2019,01,05,01,15,3.00
2019,01,05,01,16,2.10
2019,01,05,01,17,0.60
2019,01,05,01,18,0.00
2019,01,05,01,19,2.80
2019,01,05,01,20,3.70
2019,01,05,01,21,3.80
2019,01,05,01,22,3.60
2019,01,05,01,23,2.50
2019,01,05,01,24,2.00
2019,01,05,01,25,2.70
2019,01,05,01,26,3.10
2019,01,05,01,27,4.00
2019,01,05,01,28,3.30
2019,01,05,01,29,1.30
2019,01,05,01,30,1.70
2019,01,05,01,31,0.50
2019,01,05,01,32,0.10
2019,01,05,01,33,0.10
2019,01,05,01,34,1.40
2019,01,05,01,35,0.00
2019,01,05,01,36,0.00
2019,01,05,01,37,0.00
2019,01,05,01,38,0.00
2019,01,05,01,39,0.50
2019,01,05,01,40,2.30
2019,01,05,01,41,1.20
2019,01,05,01,42,1.90
2019,01,05,01,43,4.10
2019,01,05,01,44,1.40
2019,01,05,01,45,0.80
2019,01,05,01,46,0.10
2019,01,05,01,47,0.00
2019,01,05,01,48,0.00
2019,01,05,01,49,0.00
2019,01,05,01,50,0.00
2019,01,05,01,51,0.00
2019,01,05,01,52,0.00
2019,01,05,01,53,0.00
2019,01,05,01,54,0.00
2019,01,05,01,55,2.80
2019,01,05,01,56,2.10
2019,01,05,01,57,1.20
2019,01,05,01,58,1.30
2019,01,05,01,59,0.50
2019,01,05,02,00,1.00
2019,01,05,02,01,2.30
2019,01,05,02,02,2.10
2019,01,05,02,03,2.40
2019,01,05,02,04,2.40
2019,01,05,02,05,2.60
2019,01,05,02,06,2.10
2019,01,05,02,07,2.30
2019,01,05,02,08,1.50
2019,01,05,02,09,0.80
2019,01,05,02,10,0.00
2019,01,05,02,11,0.00
2019,01,05,02,12,1.60
2019,01,05,02,13,0.70
2019,01,05,02,14,0.60
2019,01,05,02,15,0.10
2019,01,05,02,16,2.60
2019,01,05,02,17,2.80
2019,01,05,02,18,4.10
2019,01,05,02,19,1.70
2019,01,05,02,20,1.10
2019,01,05,02,21,2.30
2019,01,05,02,22,4.00
2019,01,05,02,23,2.80
2019,01,05,02,24,3.90
2019,01,05,02,25,4.00
2019,01,05,02,26,3.70
2019,01,05,02,27,1.50
2019,01,05,02,28,1.40
2019,01,05,02,29,2.80
2019,01,05,02,30,4.20
2019,01,05,02,31,4.10
2019,01,05,02,32,3.10
2019,01,05,02,33,6.40
2019,01,05,02,34,6.90
2019,01,05,02,35,4.20
2019,01,05,02,36,3.00
2019,01,05,02,37,6.30
2019,01,05,02,38,4.40
2019,01,05,02,39,6.80
2019,01,05,02,40,5.70
2019,01,05,02,41,5.40
2019,01,05,02,42,4.70
2019,01,05,02,43,2.70
2019,01,05,02,44,1.60
2019,01,05,02,45,0.00
2019,01,05,02,46,0.00
2019,01,05,02,47,0.00
2019,01,05,02,48,0.40
2019,01,05,02,49,1.20
2019,01,05,02,50,2.00
2019,01,05,02,51,4.10
2019,01,05,02,52,2.10
2019,01,05,02,53,2.10
2019,01,05,02,54,1.40
2019,01,05,02,55,2.70
2019,01,05,02,56,1.90
2019,01,05,02,57,1.50
2019,01,05,02,58,2.80
2019,01,05,02,59,2.20
2019,01,05,03,00,1.00
2019,01,05,03,01,0.60
2019,01,05,03,02,2.50
2019,01,05,03,03,3.40
2019,01,05,03,04,2.00
2019,01,05,03,05,3.00
2019,01,05,03,06,2.80
2019,01,05,03,07,2.40
2019,01,05,03,08,3.50
2019,01,05,03,09,4.40
2019,01,05,03,10,2.60
2019,01,05,03,11,2.10
2019,01,05,03,12,1.50
2019,01,05,03,13,2.30
2019,01,05,03,14,2.20
2019,01,05,03,15,1.90
2019,01,05,03,16,2.10
2019,01,05,03,17,1.80
2019,01,05,03,18,1.10
2019,01,05,03,19,2.20
2019,01,05,03,20,1.30
2019,01,05,03,21,3.30
2019,01,05,03,22,3.90
2019,01,05,03,23,4.00
2019,01,05,03,24,2.80
2019,01,05,03,25,4.80
2019,01,05,03,26,3.00
2019,01,05,03,27,4.70
2019,01,05,03,28,3.80
2019,01,05,03,29,4.50
2019,01,05,03,30,5.90
2019,01,05,03,31,5.50
2019,01,05,03,32,3.70
2019,01,05,03,33,6.60
2019,01,05,03,34,5.40
2019,01,05,03,35,2.70
2019,01,05,03,36,4.50
2019,01,05,03,37,3.20
2019,01,05,03,38,3.40
2019,01,05,03,39,4.50
2019,01,05,03,40,3.60
2019,01,05,03,41,2.90
2019,01,05,03,42,2.40
2019,01,05,03,43,2.80
2019,01,05,03,44,2.50
2019,01,05,03,45,2.90
2019,01,05,03,46,2.00
2019,01,05,03,47,2.10
2019,01,05,03,48,0.80
2019,01,05,03,49,2.60
2019,01,05,03,50,1.70
2019,01,05,03,51,1.20
2019,01,05,03,52,0.80
2019,01,05,03,53,0.70
2019,01,05,03,54,3.20
2019,01,05,03,55,2.10
2019,01,05,03,56,2.00
2019,01,05,03,57,2.60
2019,01,05,03,58,1.90
2019,01,05,03,59,2.00
2019,01,05,04,00,3.10
2019,01,05,04,01,2.30
2019,01,05,04,02,3.60
2019,01,05,04,03,3.70
2019,01,05,04,04,4.30
2019,01,05,04,05,3.10
2019,01,05,04,06,3.30
2019,01,05,04,07,3.50
2019,01,05,04,08,2.40
2019,01,05,04,09,2.90
2019,01,05,04,10,1.90
2019,01,05,04,11,1.00
2019,01,05,04,12,3.50
2019,01,05,04,13,2.10
2019,01,05,04,14,2.30
2019,01,05,04,15,4.10
2019,01,05,04,16,3.60
2019,01,05,04,17,0.80
2019,01,05,04,18,1.20
2019,01,05,04,19,3.50
2019,01,05,04,20,3.40
2019,01,05,04,21,3.90
2019,01,05,04,22,5.90
2019,01,05,04,23,5.70
2019,01,05,04,24,4.10
2019,01,05,04,25,2.70
2019,01,05,04,26,3.20
2019,01,05,04,27,2.60
2019,01,05,04,28,4.10
2019,01,05,04,29,5.00
2019,01,05,04,30,3.90
2019,01,05,04,31,4.50
2019,01,05,04,32,5.80
2019,01,05,04,33,3.80
2019,01,05,04,34,6.90
2019,01,05,04,35,4.80
2019,01,05,04,36,3.10
2019,01,05,04,37,4.10
2019,01,05,04,38,4.70
2019,01,05,04,39,6.10
2019,01,05,04,40,5.60
2019,01,05,04,41,3.70
2019,01,05,04,42,2.90
2019,01,05,04,43,3.90
2019,01,05,04,44,3.80
2019,01,05,04,45,6.10
2019,01,05,04,46,5.00
2019,01,05,04,47,4.80
2019,01,05,04,48,3.80
2019,01,05,04,49,4.10
2019,01,05,04,50,4.90
2019,01,05,04,51,6.00
2019,01,05,04,52,4.40
2019,01,05,04,53,3.70
2019,01,05,04,54,4.50
2019,01,05,04,55,6.60
2019,01,05,04,56,6.70
2019,01,05,04,57,5.70
2019,01,05,04,58,5.20
2019,01,05,04,59,3.10
2019,01,05,05,00,4.20
2019,01,05,05,01,5.00
2019,01,05,05,02,5.40
2019,01,05,05,03,4.80
2019,01,05,05,04,4.50
2019,01,05,05,05,4.00
2019,01,05,05,06,4.50
2019,01,05,05,07,3.70
2019,01,05,05,08,4.80
2019,01,05,05,09,4.20
2019,01,05,05,10,6.10
2019,01,05,05,11,4.90
2019,01,05,05,12,5.80
2019,01,05,05,13,7.70
2019,01,05,05,14,5.80
2019,01,05,05,15,3.50
2019,01,05,05,16,4.70
2019,01,05,05,17,5.60
2019,01,05,05,18,7.40
2019,01,05,05,19,4.00
2019,01,05,05,20,5.40
2019,01,05,05,21,5.80
2019,01,05,05,22,4.30
2019,01,05,05,23,4.00
2019,01,05,05,24,3.40
2019,01,05,05,25,4.80
2019,01,05,05,26,3.80
2019,01,05,05,27,4.50
2019,01,05,05,28,2.90
2019,01,05,05,29,5.20
2019,01,05,05,30,5.40
2019,01,05,05,31,7.00
2019,01,05,05,32,4.50
2019,01,05,05,33,3.40
2019,01,05,05,34,3.40
2019,01,05,05,35,2.50
2019,01,05,05,36,3.50
2019,01,05,05,37,1.80
2019,01,05,05,38,4.10
2019,01,05,05,39,2.90
2019,01,05,05,40,0.40
2019,01,05,05,41,0.20
2019,01,05,05,42,0.00
2019,01,05,05,43,4.20
2019,01,05,05,44,3.50
2019,01,05,05,45,2.20
2019,01,05,05,46,3.60
2019,01,05,05,47,5.00
2019,01,05,05,48,3.40
2019,01,05,05,49,4.70
2019,01,05,05,50,4.80
2019,01,05,05,51,4.00
2019,01,05,05,52,5.00
2019,01,05,05,53,5.60
2019,01,05,05,54,4.80
2019,01,05,05,55,3.40
2019,01,05,05,56,2.90
2019,01,05,05,57,3.50
2019,01,05,05,58,3.40
2019,01,05,05,59,3.20
2019,01,05,06,00,3.30
2019,01,05,06,01,4.60
2019,01,05,06,02,4.70
2019,01,05,06,03,5.00
2019,01,05,06,04,3.40
2019,01,05,06,05,3.80
2019,01,05,06,06,3.80
2019,01,05,06,07,2.60
2019,01,05,06,08,2.90
2019,01,05,06,09,3.50
2019,01,05,06,10,2.90
2019,01,05,06,11,3.00
2019,01,05,06,12,4.20
2019,01,05,06,13,2.20
2019,01,05,06,14,2.40
2019,01,05,06,15,3.90
2019,01,05,06,16,6.10
2019,01,05,06,17,5.00
2019,01,05,06,18,3.90
2019,01,05,06,19,2.90
2019,01,05,06,20,4.10
2019,01,05,06,21,3.10
2019,01,05,06,22,5.10
2019,01,05,06,23,4.50
2019,01,05,06,24,2.40
2019,01,05,06,25,3.70
2019,01,05,06,26,5.10
2019,01,05,06,27,2.70
2019,01,05,06,28,1.60
2019,01,05,06,29,3.40
2019,01,05,06,30,3.30
2019,01,05,06,31,5.70
2019,01,05,06,32,5.80
2019,01,05,06,33,5.60
2019,01,05,06,34,6.50
2019,01,05,06,35,4.90
2019,01,05,06,36,4.90
2019,01,05,06,37,4.80
2019,01,05,06,38,4.30
2019,01,05,06,39,6.30
2019,01,05,06,40,4.60
2019,01,05,06,41,2.40
2019,01,05,06,42,4.30
2019,01,05,06,43,4.90
2019,01,05,06,44,2.80
2019,01,05,06,45,3.90
2019,01,05,06,46,5.40
2019,01,05,06,47,5.90
2019,01,05,06,48,4.30
2019,01,05,06,49,4.50
2019,01,05,06,50,3.00
2019,01,05,06,51,3.10
2019,01,05,06,52,3.20
2019,01,05,06,53,2.30
2019,01,05,06,54,0.40
2019,01,05,06,55,0.00
2019,01,05,06,56,1.10
2019,01,05,06,57,4.70
2019,01,05,06,58,3.30
2019,01,05,06,59,3.70
2019,01,05,07,00,1.90
2019,01,05,07,01,2.70
2019,01,05,07,02,2.50
2019,01,05,07,03,3.70
2019,01,05,07,04,3.90
2019,01,05,07,05,5.00
2019,01,05,07,06,5.30
2019,01,05,07,07,3.60
2019,01,05,07,08,4.70
2019,01,05,07,09,4.00
2019,01,05,07,10,3.10
2019,01,05,07,11,5.60
2019,01,05,07,12,6.10
2019,01,05,07,13,5.50
2019,01,05,07,14,5.90
2019,01,05,07,15,6.70
2019,01,05,07,16,4.50
2019,01,05,07,17,5.00
2019,01,05,07,18,5.00
2019,01,05,07,19,4.60
2019,01,05,07,20,6.50
2019,01,05,07,21,3.40
2019,01,05,07,22,3.10
2019,01,05,07,23,2.40
2019,01,05,07,24,5.50
2019,01,05,07,25,5.00
2019,01,05,07,26,6.70
2019,01,05,07,27,4.30
2019,01,05,07,28,5.60
2019,01,05,07,29,3.90
2019,01,05,07,30,3.40
2019,01,05,07,31,4.20
2019,01,05,07,32,3.80
2019,01,05,07,33,4.10
2019,01,05,07,34,6.00
2019,01,05,07,35,4.90
2019,01,05,07,36,4.80
2019,01,05,07,37,4.60
2019,01,05,07,38,4.00
2019,01,05,07,39,3.90
2019,01,05,07,40,4.60
2019,01,05,07,41,3.40
2019,01,05,07,42,2.30
2019,01,05,07,43,3.00
2019,01,05,07,44,2.70
2019,01,05,07,45,1.80
2019,01,05,07,46,4.30
2019,01,05,07,47,3.60
2019,01,05,07,48,3.40
2019,01,05,07,49,4.20
2019,01,05,07,50,2.60
2019,01,05,07,51,2.00
2019,01,05,07,52,3.10
2019,01,05,07,53,2.80
2019,01,05,07,54,2.80
2019,01,05,07,55,2.60
2019,01,05,07,56,0.80
2019,01,05,07,57,0.30
2019,01,05,07,58,2.80
2019,01,05,07,59,2.00
2019,01,05,08,00,2.90
2019,01,05,08,01,1.00
2019,01,05,08,02,4.40
2019,01,05,08,03,3.50
2019,01,05,08,04,2.30
2019,01,05,08,05,2.30
2019,01,05,08,06,1.80
2019,01,05,08,07,3.90
2019,01,05,08,08,2.20
2019,01,05,08,09,1.10
2019,01,05,08,10,1.60
2019,01,05,08,11,0.40
2019,01,05,08,12,1.60
2019,01,05,08,13,1.30
2019,01,05,08,14,2.80
2019,01,05,08,15,0.90
2019,01,05,08,16,0.40
2019,01,05,08,17,0.60
2019,01,05,08,18,0.00
2019,01,05,08,19,0.70
2019,01,05,08,20,0.50
2019,01,05,08,21,2.80
2019,01,05,08,22,2.70
2019,01,05,08,23,1.90
2019,01,05,08,24,2.90
2019,01,05,08,25,3.50
2019,01,05,08,26,2.80
2019,01,05,08,27,3.20
2019,01,05,08,28,2.90
2019,01,05,08,29,3.90
2019,01,05,08,30,2.90
2019,01,05,08,31,4.60
2019,01,05,08,32,4.70
2019,01,05,08,33,4.10
2019,01,05,08,34,4.50
2019,01,05,08,35,2.90
2019,01,05,08,36,5.40
2019,01,05,08,37,5.00
2019,01,05,08,38,4.90
2019,01,05,08,39,5.70
2019,01,05,08,40,3.50
2019,01,05,08,41,1.00
2019,01,05,08,42,4.90
2019,01,05,08,43,2.30
2019,01,05,08,44,0.70
2019,01,05,08,45,1.50
2019,01,05,08,46,4.20
2019,01,05,08,47,3.00
2019,01,05,08,48,1.10
2019,01,05,08,49,2.70
2019,01,05,08,50,3.40
2019,01,05,08,51,3.20
2019,01,05,08,52,4.50
2019,01,05,08,53,3.70
2019,01,05,08,54,2.00
2019,01,05,08,55,3.60
2019,01,05,08,56,3.90
2019,01,05,08,57,2.60
2019,01,05,08,58,3.70
2019,01,05,08,59,2.50
2019,01,05,09,00,2.40
2019,01,05,09,01,3.10
2019,01,05,09,02,2.50
2019,01,05,09,03,2.10
2019,01,05,09,04,1.20
2019,01,05,09,05,1.30
2019,01,05,09,06,2.00
2019,01,05,09,07,2.90
2019,01,05,09,08,2.70
2019,01,05,09,09,2.80
2019,01,05,09,10,1.50
2019,01,05,09,11,3.30
2019,01,05,09,12,1.40
2019,01,05,09,13,4.50
2019,01,05,09,14,2.70
2019,01,05,09,15,1.80
2019,01,05,09,16,0.10
2019,01,05,09,17,2.00
2019,01,05,09,18,3.00
2019,01,05,09,19,1.90
2019,01,05,09,20,2.40
2019,01,05,09,21,1.00
2019,01,05,09,22,2.50
2019,01,05,09,23,3.80
2019,01,05,09,24,1.60
2019,01,05,09,25,2.80
2019,01,05,09,26,1.50
2019,01,05,09,27,2.90
2019,01,05,09,28,2.30
2019,01,05,09,29,1.50
2019,01,05,09,30,1.70
2019,01,05,09,31,3.70
2019,01,05,09,32,2.80
2019,01,05,09,33,2.80
2019,01,05,09,34,3.50
2019,01,05,09,35,3.00
2019,01,05,09,36,3.90
2019,01,05,09,37,3.60
2019,01,05,09,38,5.00
2019,01,05,09,39,3.30
2019,01,05,09,40,2.80
2019,01,05,09,41,6.20
2019,01,05,09,42,4.80
2019,01,05,09,43,5.00
2019,01,05,09,44,3.90
2019,01,05,09,45,1.80
2019,01,05,09,46,3.50
2019,01,05,09,47,1.00
2019,01,05,09,48,2.10
2019,01,05,09,49,4.20
2019,01,05,09,50,1.50
2019,01,05,09,51,3.00
2019,01,05,09,52,2.60
2019,01,05,09,53,3.80
2019,01,05,09,54,5.10
2019,01,05,09,55,5.40
2019,01,05,09,56,3.20
2019,01,05,09,57,5.50
2019,01,05,09,58,3.90
2019,01,05,09,59,4.30
2019,01,05,10,00,2.70
2019,01,05,10,01,7.10
2019,01,05,10,02,5.40
2019,01,05,10,03,7.00
2019,01,05,10,04,2.80
2019,01,05,10,05,5.70
2019,01,05,10,06,2.60
2019,01,05,10,07,4.80
2019,01,05,10,08,4.50
2019,01,05,10,09,3.50
2019,01,05,10,10,2.20
2019,01,05,10,11,2.00
2019,01,05,10,12,2.70
2019,01,05,10,13,4.60
2019,01,05,10,14,1.00
2019,01,05,10,15,2.90
2019,01,05,10,16,2.60
2019,01,05,10,17,2.50
2019,01,05,10,18,2.00
2019,01,05,10,19,3.80
2019,01,05,10,20,2.30
2019,01,05,10,21,2.10
2019,01,05,10,22,3.40
2019,01,05,10,23,2.50
2019,01,05,10,24,3.90
2019,01,05,10,25,3.40
2019,01,05,10,26,4.90
2019,01,05,10,27,4.70
2019,01,05,10,28,6.10
2019,01,05,10,29,3.00
2019,01,05,10,30,4.80
2019,01,05,10,31,4.20
2019,01,05,10,32,7.50
2019,01,05,10,33,6.10
2019,01,05,10,34,4.90
2019,01,05,10,35,4.10
2019,01,05,10,36,5.30
2019,01,05,10,37,2.50
2019,01,05,10,38,4.50
2019,01,05,10,39,4.80
2019,01,05,10,40,3.10
2019,01,05,10,41,6.90
2019,01,05,10,42,7.00
2019,01,05,10,43,9.30
2019,01,05,10,44,8.10
2019,01,05,10,45,8.30
2019,01,05,10,46,4.20
2019,01,05,10,47,3.10
2019,01,05,10,48,5.70
2019,01,05,10,49,3.90
2019,01,05,10,50,4.20
2019,01,05,10,51,5.10
2019,01,05,10,52,4.70
2019,01,05,10,53,4.90
2019,01,05,10,54,2.70
2019,01,05,10,55,4.00
2019,01,05,10,56,5.60
2019,01,05,10,57,4.60
2019,01,05,10,58,2.90
2019,01,05,10,59,4.70
2019,01,05,11,00,6.20
2019,01,05,11,01,5.90
2019,01,05,11,02,7.40
2019,01,05,11,03,8.80
2019,01,05,11,04,5.10
2019,01,05,11,05,4.00
2019,01,05,11,06,2.10
2019,01,05,11,07,4.60
2019,01,05,11,08,6.40
2019,01,05,11,09,4.30
2019,01,05,11,10,5.50
2019,01,05,11,11,3.90
2019,01,05,11,12,5.10
2019,01,05,11,13,4.40
2019,01,05,11,14,5.60
2019,01,05,11,15,8.40
2019,01,05,11,16,6.00
2019,01,05,11,17,4.00
2019,01,05,11,18,5.90
2019,01,05,11,19,7.00
2019,01,05,11,20,2.40
2019,01,05,11,21,2.90
2019,01,05,11,22,6.30
2019,01,05,11,23,5.20
2019,01,05,11,24,3.90
2019,01,05,11,25,3.20
2019,01,05,11,26,5.60
2019,01,05,11,27,5.20
2019,01,05,11,28,5.20
2019,01,05,11,29,4.30
2019,01,05,11,30,4.00
2019,01,05,11,31,7.40
2019,01,05,11,32,4.80
2019,01,05,11,33,6.40
2019,01,05,11,34,6.10
2019,01,05,11,35,5.70
2019,01,05,11,36,7.20
2019,01,05,11,37,6.00
2019,01,05,11,38,4.90
2019,01,05,11,39,7.30
2019,01,05,11,40,4.70
2019,01,05,11,41,5.20
2019,01,05,11,42,3.10
2019,01,05,11,43,4.60
2019,01,05,11,44,3.30
2019,01,05,11,45,2.90
2019,01,05,11,46,3.50
2019,01,05,11,47,3.40
2019,01,05,11,48,4.80
2019,01,05,11,49,4.20
2019,01,05,11,50,4.80
2019,01,05,11,51,3.10
2019,01,05,11,52,4.50
2019,01,05,11,53,4.80
2019,01,05,11,54,5.60
2019,01,05,11,55,6.00
2019,01,05,11,56,5.40
2019,01,05,11,57,6.60
2019,01,05,11,58,4.80
2019,01,05,11,59,6.20
2019,01,05,12,00,5.50
2019,01,05,12,01,4.60
2019,01,05,12,02,5.50
2019,01,05,12,03,5.30
2019,01,05,12,04,5.90
2019,01,05,12,05,5.20
2019,01,05,12,06,4.90
2019,01,05,12,07,3.90
2019,01,05,12,08,2.20
2019,01,05,12,09,2.40
2019,01,05,12,10,3.90
2019,01,05,12,11,4.20
2019,01,05,12,12,8.00
2019,01,05,12,13,6.00
2019,01,05,12,14,5.70
2019,01,05,12,15,13.00
2019,01,05,12,16,9.60
2019,01,05,12,17,6.20
2019,01,05,12,18,5.80
2019,01,05,12,19,7.00
2019,01,05,12,20,5.90
2019,01,05,12,21,7.00
2019,01,05,12,22,8.00
2019,01,05,12,23,4.40
2019,01,05,12,24,5.30
2019,01,05,12,25,7.50
2019,01,05,12,26,6.70
2019,01,05,12,27,5.80
2019,01,05,12,28,8.80
2019,01,05,12,29,7.80
2019,01,05,12,30,5.90
2019,01,05,12,31,4.90
2019,01,05,12,32,5.70
2019,01,05,12,33,6.90
2019,01,05,12,34,6.00
2019,01,05,12,35,4.30
2019,01,05,12,36,4.70
2019,01,05,12,37,4.70
2019,01,05,12,38,4.90
2019,01,05,12,39,5.50
2019,01,05,12,40,4.70
2019,01,05,12,41,4.00
2019,01,05,12,42,4.50
2019,01,05,12,43,2.60
2019,01,05,12,44,4.00
2019,01,05,12,45,3.80
2019,01,05,12,46,0.80
2019,01,05,12,47,3.10
2019,01,05,12,48,1.80
2019,01,05,12,49,3.40
2019,01,05,12,50,4.00
2019,01,05,12,51,4.50
2019,01,05,12,52,6.30
2019,01,05,12,53,5.90
2019,01,05,12,54,5.10
2019,01,05,12,55,5.60
2019,01,05,12,56,6.50
2019,01,05,12,57,7.40
2019,01,05,12,58,3.20
2019,01,05,12,59,3.80
2019,01,05,13,00,5.60
2019,01,05,13,01,6.50
2019,01,05,13,02,5.10
2019,01,05,13,03,6.40
2019,01,05,13,04,7.30
2019,01,05,13,05,6.80
2019,01,05,13,06,6.00
2019,01,05,13,07,6.40
2019,01,05,13,08,6.00
2019,01,05,13,09,3.30
2019,01,05,13,10,5.30
2019,01,05,13,11,7.10
2019,01,05,13,12,7.10
2019,01,05,13,13,4.90
2019,01,05,13,14,4.20
2019,01,05,13,15,7.40
2019,01,05,13,16,7.30
2019,01,05,13,17,5.50
2019,01,05,13,18,7.80
2019,01,05,13,19,7.60
2019,01,05,13,20,8.40
2019,01,05,13,21,4.90
2019,01,05,13,22,4.20
2019,01,05,13,23,4.40
2019,01,05,13,24,4.00
2019,01,05,13,25,2.20
2019,01,05,13,26,5.40
2019,01,05,13,27,4.40
2019,01,05,13,28,3.30
2019,01,05,13,29,5.10
2019,01,05,13,30,6.70
2019,01,05,13,31,5.70
2019,01,05,13,32,5.40
2019,01,05,13,33,7.30
2019,01,05,13,34,6.90
2019,01,05,13,35,3.70
2019,01,05,13,36,5.70
2019,01,05,13,37,5.00
2019,01,05,13,38,4.60
2019,01,05,13,39,1.90
2019,01,05,13,40,4.50
2019,01,05,13,41,5.40
2019,01,05,13,42,4.10
2019,01,05,13,43,2.30
2019,01,05,13,44,3.00
2019,01,05,13,45,2.30
2019,01,05,13,46,3.00
2019,01,05,13,47,4.00
2019,01,05,13,48,4.80
2019,01,05,13,49,4.20
2019,01,05,13,50,4.00
2019,01,05,13,51,4.80
2019,01,05,13,52,4.90
2019,01,05,13,53,8.10
2019,01,05,13,54,7.50
2019,01,05,13,55,8.40
2019,01,05,13,56,6.40
2019,01,05,13,57,6.10
2019,01,05,13,58,5.00
2019,01,05,13,59,1.50
2019,01,05,14,00,0.00
2019,01,05,14,01,1.90
2019,01,05,14,02,1.40
2019,01,05,14,03,1.20
2019,01,05,14,04,4.60
2019,01,05,14,05,5.90
2019,01,05,14,06,7.50
2019,01,05,14,07,6.40
2019,01,05,14,08,8.80
2019,01,05,14,09,7.50
2019,01,05,14,10,6.70
2019,01,05,14,11,4.30
2019,01,05,14,12,5.50
2019,01,05,14,13,1.70
2019,01,05,14,14,5.30
2019,01,05,14,15,4.40
2019,01,05,14,16,4.90
2019,01,05,14,17,4.20
2019,01,05,14,18,5.00
2019,01,05,14,19,4.40
2019,01,05,14,20,6.40
2019,01,05,14,21,8.60
2019,01,05,14,22,7.50
2019,01,05,14,23,4.20
2019,01,05,14,24,2.60
2019,01,05,14,25,6.70
2019,01,05,14,26,4.40
2019,01,05,14,27,4.80
2019,01,05,14,28,5.90
2019,01,05,14,29,6.10
2019,01,05,14,30,6.40
2019,01,05,14,31,5.30
2019,01,05,14,32,2.70
2019,01,05,14,33,2.50
2019,01,05,14,34,3.40
2019,01,05,14,35,2.00
2019,01,05,14,36,4.60
2019,01,05,14,37,4.30
2019,01,05,14,38,6.10
2019,01,05,14,39,3.70
2019,01,05,14,40,2.90
2019,01,05,14,41,5.10
2019,01,05,14,42,4.80
2019,01,05,14,43,2.80
2019,01,05,14,44,4.70
2019,01,05,14,45,5.70
2019,01,05,14,46,5.50
2019,01,05,14,47,5.60
2019,01,05,14,48,2.90
2019,01,05,14,49,3.10
2019,01,05,14,50,5.00
2019,01,05,14,51,4.80
2019,01,05,14,52,2.80
2019,01,05,14,53,3.20
2019,01,05,14,54,6.40
2019,01,05,14,55,5.70
2019,01,05,14,56,7.80
2019,01,05,14,57,8.00
2019,01,05,14,58,8.00
2019,01,05,14,59,5.60
2019,01,05,15,00,6.40
2019,01,05,15,01,5.90
2019,01,05,15,02,5.00
2019,01,05,15,03,5.60
2019,01,05,15,04,4.50
2019,01,05,15,05,6.10
2019,01,05,15,06,7.60
2019,01,05,15,07,7.30
2019,01,05,15,08,4.60
2019,01,05,15,09,3.90
2019,01,05,15,10,3.40
2019,01,05,15,11,1.80
2019,01,05,15,12,2.90
2019,01,05,15,13,3.00
2019,01,05,15,14,3.40
2019,01,05,15,15,4.50
2019,01,05,15,16,3.90
2019,01,05,15,17,5.40
2019,01,05,15,18,4.50
2019,01,05,15,19,2.70
2019,01,05,15,20,1.50
2019,01,05,15,21,5.10
2019,01,05,15,22,8.10
2019,01,05,15,23,8.10
2019,01,05,15,24,8.10
2019,01,05,15,25,4.00
2019,01,05,15,26,2.60
2019,01,05,15,27,2.80
2019,01,05,15,28,2.20
2019,01,05,15,29,2.50
2019,01,05,15,30,4.10
2019,01,05,15,31,4.90
2019,01,05,15,32,2.30
2019,01,05,15,33,5.30
2019,01,05,15,34,4.70
2019,01,05,15,35,2.60
2019,01,05,15,36,3.40
2019,01,05,15,37,3.70
2019,01,05,15,38,3.70
2019,01,05,15,39,4.70
2019,01,05,15,40,4.60
2019,01,05,15,41,4.10
2019,01,05,15,42,4.30
2019,01,05,15,43,3.60
2019,01,05,15,44,4.40
2019,01,05,15,45,5.10
2019,01,05,15,46,2.60
2019,01,05,15,47,2.50
2019,01,05,15,48,2.80
2019,01,05,15,49,5.40
2019,01,05,15,50,1.40
2019,01,05,15,51,1.60
2019,01,05,15,52,1.70
2019,01,05,15,53,0.80
2019,01,05,15,54,5.30
2019,01,05,15,55,6.00
2019,01,05,15,56,2.70
2019,01,05,15,57,3.30
2019,01,05,15,58,1.70
2019,01,05,15,59,1.60
2019,01,05,16,00,1.40
2019,01,05,16,01,0.10
2019,01,05,16,02,1.50
2019,01,05,16,03,0.30
2019,01,05,16,04,1.00
2019,01,05,16,05,1.30
2019,01,05,16,06,0.00
2019,01,05,16,07,0.00
2019,01,05,16,08,0.70
2019,01,05,16,09,0.40
2019,01,05,16,10,2.70
2019,01,05,16,11,3.60
2019,01,05,16,12,4.50
2019,01,05,16,13,3.10
2019,01,05,16,14,1.50
2019,01,05,16,15,0.80
2019,01,05,16,16,0.20
2019,01,05,16,17,1.30
2019,01,05,16,18,0.00
2019,01,05,16,19,0.20
2019,01,05,16,20,0.60
2019,01,05,16,21,0.70
2019,01,05,16,22,2.40
2019,01,05,16,23,0.80
2019,01,05,16,24,0.50
2019,01,05,16,25,1.10
2019,01,05,16,26,2.70
2019,01,05,16,27,2.80
2019,01,05,16,28,2.60
2019,01,05,16,29,2.60
2019,01,05,16,30,1.50
2019,01,05,16,31,3.00
2019,01,05,16,32,3.60
2019,01,05,16,33,2.80
2019,01,05,16,34,3.60
2019,01,05,16,35,2.40
2019,01,05,16,36,2.80
2019,01,05,16,37,3.70
2019,01,05,16,38,4.90
2019,01,05,16,39,5.60
2019,01,05,16,40,6.10
2019,01,05,16,41,5.00
2019,01,05,16,42,6.90
2019,01,05,16,43,5.60
2019,01,05,16,44,3.90
2019,01,05,16,45,4.50
2019,01,05,16,46,2.70
2019,01,05,16,47,3.80
2019,01,05,16,48,3.40
2019,01,05,16,49,2.20
2019,01,05,16,50,2.90
2019,01,05,16,51,5.70
2019,01,05,16,52,4.20
2019,01,05,16,53,5.20
2019,01,05,16,54,4.40
2019,01,05,16,55,3.80
2019,01,05,16,56,3.10
2019,01,05,16,57,2.90
2019,01,05,16,58,4.90
2019,01,05,16,59,7.50
2019,01,05,17,00,7.30
2019,01,05,17,01,4.20
2019,01,05,17,02,2.20
2019,01,05,17,03,5.30
2019,01,05,17,04,3.70
2019,01,05,17,05,6.10
2019,01,05,17,06,3.90
2019,01,05,17,07,3.50
2019,01,05,17,08,3.10
2019,01,05,17,09,4.50
2019,01,05,17,10,5.70
2019,01,05,17,11,5.00
2019,01,05,17,12,6.40
2019,01,05,17,13,6.50
2019,01,05,17,14,4.20
2019,01,05,17,15,8.90
2019,01,05,17,16,4.10
2019,01,05,17,17,6.50
2019,01,05,17,18,5.80
2019,01,05,17,19,3.90
2019,01,05,17,20,1.80
2019,01,05,17,21,0.80
2019,01,05,17,22,0.00
2019,01,05,17,23,2.10
2019,01,05,17,24,1.10
2019,01,05,17,25,3.80
2019,01,05,17,26,5.00
2019,01,05,17,27,5.60
2019,01,05,17,28,5.30
2019,01,05,17,29,5.00
2019,01,05,17,30,5.00
2019,01,05,17,31,6.80
2019,01,05,17,32,7.50
2019,01,05,17,33,4.70
2019,01,05,17,34,3.50
2019,01,05,17,35,6.70
2019,01,05,17,36,11.10
2019,01,05,17,37,8.70
2019,01,05,17,38,7.80
2019,01,05,17,39,9.80
2019,01,05,17,40,11.10
2019,01,05,17,41,8.20
2019,01,05,17,42,7.60
2019,01,05,17,43,6.20
2019,01,05,17,44,7.40
2019,01,05,17,45,10.20
2019,01,05,17,46,7.60
2019,01,05,17,47,9.00
2019,01,05,17,48,13.60
2019,01,05,17,49,11.20
2019,01,05,17,50,10.60
2019,01,05,17,51,13.30
2019,01,05,17,52,11.20
2019,01,05,17,53,13.10
2019,01,05,17,54,13.60
2019,01,05,17,55,14.30
2019,01,05,17,56,13.80
2019,01,05,17,57,11.80
2019,01,05,17,58,15.60
2019,01,05,17,59,13.30
2019,01,05,18,00,14.70
2019,01,05,18,01,12.80
2019,01,05,18,02,14.00
2019,01,05,18,03,13.00
2019,01,05,18,04,11.30
2019,01,05,18,05,14.00